Starlink 31076

operational
NORAD ID: 58736 Int'l Des: 2024-005 Owner: SPXS Country: US Constellation: starlink
LEOCIRCULAR

Über Starlink 31076

Beschreibung wird geladen...

Live-Position

3D-Globus wird geladen...

Nächste Überflüge

Höhenverlauf

Altitude vs Time

uPlot chart will show altitude changes over time

Zweizeiliger Elementsatz

1 58736U 24005J 25257.95869320 -.00000251 00000-0 -35408-5 0 9998
2 58736 43.0034 96.7888 0001167 267.5884 92.4825 15.02534505 94021
Epoch: 14. Sept. 2025 • Age: 14 hours

Aktueller Status

Höhe 570.7 km
Geschwindigkeit 7.58 km/s
Subsatellitenpunkt -40.80°S, 163.8°W
Startdatum 7. Jan. 2024
Alter 1.6 years
Typ internet

Technische Details

Klassifizierung Payload
Masse 730.00 kg
Trockenmasse 700.00 kg
Gesamtmasse 730.00 kg
Länge 0.30 m
Durchmesser 4.10 m
Spannweite 29.00 m
Form Box + pan
Hersteller SPXS
Bus-Typ Starlink V2M
Phasenstatus In Orbit
Besitzer/Staat SPXS/US

Große Konstellationen

Loading constellations...